Location: Sungai Dangang
(2.7500°N, 113.8333°E)
Time: 04:19:25
(UTC+00:00)

Cosmos 1484 Rocket - Pass Details

Date: 16 May 2021
Orbit: 504 x 559 km, 97.4° (Epoch: 16 June)

Event Time Altitude Azimuth Distance (km) Brightness Sun altitude
Rises 20:23:05 0° 13° (NNE) 2,648 6.8 -26.6°
Reaches altitude 10° 20:25:12 10° 15° (NNE) 1,753 5.8 -26.2°
Enters shadow 20:27:53 45° 24° (NNE) 716 3.6 -25.5°
